Theta_e
319 314 314 309 299 292 287 290 292 294 293 296 299 300 297 296 297 295 313 313 317 329 340 341 347 348 349 350 349 349 349 349 349 349 349 349 348 348 348 348 349 347 346 345 343 343 344 347 348
314 316 311 302 292 286 287 290 293 295 297 299 300 297 296 294 302 304 305 311 320 332 340 342 345 346 346 348 350 350 349 348 347 349 348 348 349 348 347 348 350 348 346 346 344 343 344 347 348
315 313 303 296 287 287 287 290 291 295 296 297 296 298 296 297 301 302 305 309 311 312 319 325 337 342 342 342 345 349 348 349 348 348 349 348 348 347 347 347 349 349 346 346 346 345 346 346 347
306 306 299 291 287 289 292 292 295 296 296 299 297 294 298 302 302 303 306 307 307 309 312 320 329 329 335 340 342 343 343 344 346 346 346 347 348 347 346 347 347 347 346 345 346 346 349 346 346
304 298 292 289 287 289 291 294 295 294 294 295 295 293 295 300 302 302 302 305 303 304 309 310 321 325 328 329 331 335 336 339 341 343 343 344 346 346 347 346 347 347 345 345 345 348 349 348 347
299 295 290 286 288 291 292 294 295 294 293 294 294 293 293 298 299 299 300 299 302 300 303 305 311 318 321 323 324 327 330 333 336 338 339 341 342 343 344 345 345 345 345 345 346 347 347 347 347
296 292 290 289 289 291 293 295 294 292 292 295 294 291 293 295 297 297 297 297 297 299 299 300 301 306 313 317 319 320 320 323 329 332 334 335 339 340 340 341 343 344 344 345 345 345 346 347 346
297 294 291 290 289 290 294 295 295 295 293 296 295 290 288 292 296 296 295 295 296 296 296 297 298 300 302 303 313 316 314 316 321 326 330 330 331 334 336 335 337 341 342 342 342 342 343 345 345
300 293 290 289 290 291 294 293 295 294 292 292 293 291 293 294 293 293 292 293 294 297 295 295 297 298 300 301 304 308 310 311 315 319 321 324 327 330 331 332 334 338 340 340 340 340 340 338 337
296 291 291 293 292 292 294 293 294 292 289 289 290 292 292 291 291 291 290 290 290 292 294 295 294 295 297 300 300 300 302 302 307 313 313 319 322 325 327 325 327 332 333 336 338 339 337 332 332
294 291 295 295 296 296 295 293 293 291 288 289 288 289 289 289 289 289 289 289 289 290 292 294 293 294 294 296 297 296 299 299 305 307 309 312 312 319 322 326 328 328 325 327 331 332 333 329 329
292 296 296 298 297 296 294 295 291 290 289 292 290 289 288 287 287 288 288 288 288 289 290 292 292 292 293 293 292 292 294 296 299 304 307 307 310 307 308 312 315 325 327 326 327 328 327 327 328
293 295 297 297 297 296 296 293 291 288 290 290 290 289 287 287 287 287 288 288 287 287 288 289 291 291 292 291 291 293 291 292 296 299 303 306 305 303 307 305 306 310 317 325 326 326 325 325 329
295 296 296 297 296 296 293 290 291 290 290 288 289 287 287 287 287 286 286 286 287 287 287 288 289 290 291 290 290 291 292 293 294 294 297 302 303 301 303 302 302 312 312 311 320 325 324 325 327
295 292 294 294 295 294 293 289 290 290 289 288 287 286 287 287 286 286 286 286 285 286 287 287 289 290 289 289 291 291 292 292 292 293 295 299 299 298 302 300 302 306 307 304 305 315 324 324 325
290 289 287 292 294 293 291 286 290 289 288 286 285 284 285 286 285 285 286 285 284 285 286 287 290 289 290 289 291 291 291 291 292 293 294 294 295 296 300 298 300 301 303 302 302 303 316 321 323
287 284 285 288 294 292 290 286 289 288 288 285 282 283 283 282 283 284 285 284 284 284 284 285 287 288 289 290 290 290 290 291 292 291 292 293 293 294 298 297 299 300 300 300 301 302 301 316 320
284 282 284 285 289 290 289 288 288 289 285 284 282 282 281 282 284 285 285 284 284 284 284 285 287 287 288 289 288 289 289 290 290 290 290 291 292 292 294 296 297 297 299 298 299 300 302 301 313
286 284 284 287 291 288 288 289 286 289 284 282 280 280 280 282 284 284 284 283 283 283 284 284 285 286 287 287 286 286 285 286 287 287 288 288 289 291 292 293 294 296 297 297 298 300 300 300 301
287 285 284 288 289 287 287 286 288 288 286 285 282 280 280 281 282 283 283 282 282 282 283 284 285 285 286 286 285 285 284 284 284 285 285 285 286 286 287 288 291 295 296 297 297 298 299 299 300
285 285 283 284 286 285 283 282 286 285 286 283 282 282 281 281 281 281 282 280 281 281 282 284 285 285 285 284 285 284 283 282 282 282 282 283 284 284 284 284 285 290 295 296 295 297 297 296 298
283 286 286 284 281 277 281 276 280 280 282 282 282 280 280 280 282 282 282 280 280 282 282 283 284 284 284 283 282 280 279 278 280 280 281 281 282 281 282 284 287 290 293 295 293 294 294 296 296
285 285 284 283 280 277 279 275 279 279 279 280 281 280 279 280 281 281 281 282 282 282 281 282 283 283 283 282 281 279 278 278 279 279 278 278 279 280 281 283 284 287 287 293 294 293 294 295 296
288 284 282 280 277 272 277 277 275 276 280 281 282 279 279 279 280 281 282 282 282 281 281 281 281 281 282 280 279 278 277 276 276 276 276 276 277 279 280 280 281 283 286 288 294 295 294 294 294
285 280 276 273 271 274 276 274 282 282 281 282 282 279 278 279 279 280 280 280 280 280 280 281 280 280 280 279 278 278 277 276 275 275 275 275 275 276 275 277 279 280 283 285 287 295 293 293 293
283 281 277 270 271 279 275 274 279 280 279 282 283 279 278 278 279 280 280 280 279 280 279 279 279 279 279 278 277 277 276 276 275 275 275 274 274 274 275 277 277 278 280 285 286 293 294 294 293
281 278 281 275 262 266 274 277 280 278 276 277 277 277 277 278 279 279 280 279 279 279 279 278 278 278 278 276 276 275 275 275 274 274 274 274 274 274 276 274 275 277 280 280 285 285 293 293 293
282 283 276 275 269 266 275 276 279 275 275 275 276 276 276 278 278 279 279 279 279 279 278 277 277 276 276 275 274 274 273 274 274 274 273 273 273 273 273 273 273 273 275 276 280 283 292 291 291
277 277 277 278 279 273 271 280 280 278 279 276 277 277 277 277 278 278 278 278 278 277 276 276 274 274 274 274 273 272 272 273 273 273 272 272 273 272 272 272 272 273 274 276 278 281 284 290 290
280 281 281 276 274 276 276 278 283 281 280 279 278 277 277 278 278 278 277 277 277 275 275 273 273 272 273 272 272 271 271 271 271 271 272 272 271 272 271 271 272 271 272 273 276 279 280 290 289
Wind_Speed
5 2 3 5 5 6 1 2 2 3 2 2 2 10 11 6 4 7 5 12 13 8 7 7 10 6 6 9 8 6 6 7 8 9 10 10 10 10 11 10 8 9 10 11 11 13 13 10 11
3 2 5 3 6 4 4 3 3 3 5 5 7 6 11 5 7 7 8 16 9 10 8 7 10 12 13 13 10 5 6 9 10 11 12 13 12 12 11 11 9 11 12 13 13 12 13 12 10
3 3 4 5 4 4 5 3 3 1 1 3 7 8 5 8 5 5 8 9 14 15 13 13 16 14 13 17 15 12 10 8 10 12 14 15 13 14 13 12 11 12 13 14 15 14 13 12 11
2 5 5 6 3 1 7 5 4 5 2 10 11 10 6 8 4 5 8 9 14 13 12 16 23 22 19 18 17 17 15 16 15 13 13 15 15 14 13 13 13 13 14 15 16 15 14 13 12
4 3 4 4 2 1 3 2 4 3 3 6 4 5 6 5 6 5 8 8 11 11 9 12 22 24 23 23 22 21 22 20 18 17 16 17 16 16 15 14 14 15 16 17 17 15 14 13 12
4 3 5 2 3 2 3 0 5 4 3 3 8 7 4 4 6 6 6 9 8 10 9 11 16 19 22 23 27 25 24 22 21 20 20 19 18 18 18 17 16 16 16 17 17 16 14 13 13
6 4 3 2 6 2 2 0 5 4 3 5 4 6 5 5 6 5 8 8 8 8 10 9 9 12 16 18 23 25 27 27 25 22 20 19 18 19 19 18 17 16 17 17 17 16 14 13 14
5 5 2 1 4 2 3 3 5 6 2 1 2 7 5 1 5 7 7 8 8 7 8 9 8 9 10 8 19 20 23 25 25 24 19 17 17 15 17 15 15 17 17 19 19 17 16 15 15
3 5 1 2 3 2 2 3 4 4 8 6 5 4 6 1 3 9 7 9 8 8 7 7 9 11 9 11 13 16 19 22 21 19 23 18 10 11 12 12 14 18 18 19 20 20 18 16 13
5 4 2 1 3 3 0 3 8 6 4 5 6 6 5 6 7 9 8 7 8 9 8 8 8 8 7 8 9 8 9 9 9 10 14 12 15 12 12 13 14 18 18 20 22 20 18 13 6
1 3 2 1 3 4 4 1 2 13 2 7 10 8 5 7 8 8 5 4 4 5 5 7 6 6 6 4 4 3 4 6 7 10 10 10 11 10 10 9 7 7 9 8 11 11 9 9 7
3 2 2 6 3 4 5 4 5 1 3 11 12 10 7 9 7 6 6 5 4 6 7 8 8 7 7 4 4 4 5 6 5 8 12 9 7 10 11 9 13 12 7 9 10 8 10 9 10
1 4 3 0 5 6 6 1 7 4 7 9 10 8 9 7 6 5 4 4 3 4 6 7 7 6 5 6 5 7 5 4 5 5 8 10 9 9 8 10 11 11 13 10 10 11 10 10 11
2 3 8 6 1 5 7 3 2 7 7 9 9 9 8 9 7 4 4 3 5 5 5 6 6 6 7 6 7 7 7 9 9 5 5 9 9 10 9 8 11 10 10 12 15 11 12 11 11
3 6 6 4 5 5 10 1 9 10 10 11 10 9 8 7 6 5 4 5 3 3 5 6 6 6 7 6 8 7 8 8 8 8 6 7 8 12 12 7 9 9 9 14 13 17 11 11 11
2 3 3 3 3 1 6 10 4 10 14 10 9 7 8 7 7 6 5 5 5 5 5 7 6 7 10 7 9 9 9 10 11 10 8 9 13 15 12 8 10 6 9 9 10 11 16 11 12
5 4 4 7 8 2 6 6 5 7 11 10 9 8 7 6 5 5 5 5 5 5 4 5 5 7 11 9 10 10 10 9 8 8 11 16 18 18 13 11 10 8 7 8 9 12 11 14 11
5 5 6 7 3 4 7 13 8 13 9 13 9 8 7 7 7 8 7 4 5 5 5 5 5 7 10 8 7 7 9 10 10 10 12 17 15 19 16 12 11 10 9 7 8 10 12 10 14
3 5 7 6 7 6 11 16 14 17 8 10 10 10 9 9 6 6 5 4 5 6 6 6 8 8 6 6 9 9 10 11 11 11 16 16 16 17 16 14 14 11 10 9 8 9 12 11 10
5 6 8 10 5 3 9 11 9 17 22 21 17 11 10 6 7 7 5 4 5 4 5 7 7 5 5 4 6 7 9 9 10 10 14 16 17 16 18 18 17 15 11 13 8 7 9 11 9
4 6 6 9 4 6 9 8 18 4 12 8 8 10 7 10 8 6 5 3 4 5 4 6 7 6 5 6 7 8 9 9 9 11 12 11 17 18 18 21 19 19 14 12 10 5 8 10 13
6 3 5 5 4 4 4 12 4 7 16 13 14 10 10 9 7 6 4 1 2 4 4 6 6 6 5 6 6 7 9 13 11 13 13 14 16 18 18 19 20 16 14 14 8 7 6 10 13
9 0 4 3 5 4 7 6 6 3 9 15 17 13 10 9 8 8 5 1 2 3 4 5 7 6 5 4 4 5 9 10 11 12 17 16 15 15 18 17 19 16 13 17 13 8 8 8 13
1 3 4 3 3 2 7 9 6 7 11 9 15 12 12 9 9 7 4 2 4 5 4 6 7 6 6 6 5 6 10 13 12 15 15 13 13 12 14 18 18 17 16 16 14 13 9 8 11
3 5 5 6 3 10 5 4 17 8 8 12 23 17 12 9 8 6 5 4 5 6 6 6 6 7 7 7 8 8 11 13 15 14 13 18 14 12 15 18 16 14 17 18 17 16 9 8 10
6 7 7 7 5 15 2 11 8 5 7 7 11 14 9 9 8 7 7 6 6 6 7 7 5 10 9 9 11 10 11 9 10 12 13 14 13 15 18 16 17 18 21 16 16 16 8 7 8
5 6 2 1 2 4 7 8 6 4 3 6 11 10 10 9 8 8 7 6 6 6 7 6 7 10 11 12 11 12 11 13 13 15 15 13 16 15 16 19 19 18 17 18 17 13 13 8 7
4 4 3 1 3 8 7 11 14 8 11 8 11 13 10 8 8 7 5 6 5 5 6 7 7 9 11 11 10 12 12 13 14 14 18 18 17 18 18 18 18 19 18 19 18 12 15 8 6
1 4 3 2 5 5 5 19 8 16 18 19 17 16 13 10 8 7 6 5 3 5 6 7 6 9 12 12 13 13 14 14 15 14 17 17 18 18 19 18 18 17 16 17 17 18 19 13 8
2 10 13 7 7 8 3 20 2 9 12 19 17 15 9 8 9 8 5 4 6 6 6 6 6 9 11 13 14 15 15 16 16 16 18 18 19 18 18 18 18 17 17 17 17 18 15 14 12
Wind_Direction
323 41 95 45 56 65 8 29 53 113 67 271 86 91 96 36 38 131 256 357 331 23 38 23 23 11 310 292 259 237 239 243 249 256 248 236 242 246 244 258 257 261 270 271 272 278 279 276 274
338 104 45 83 83 71 284 299 126 165 178 126 82 62 39 56 21 77 15 338 3 29 28 27 31 15 4 349 321 277 253 266 265 262 261 259 255 253 251 261 245 251 261 270 268 266 272 273 271
318 63 85 96 107 151 175 227 174 174 355 108 107 61 40 331 355 78 322 329 33 31 28 20 15 10 8 358 346 349 320 276 268 271 271 270 258 258 265 259 269 251 256 259 267 266 262 267 270
50 14 32 80 118 130 166 201 161 133 331 77 112 67 80 327 63 342 300 15 37 21 15 20 25 24 18 3 1 0 356 338 311 288 274 270 270 272 265 263 261 260 259 263 259 263 261 257 259
37 60 58 88 98 84 275 205 66 77 76 51 99 121 97 4 353 10 15 27 40 27 11 16 18 20 26 25 15 0 350 341 337 319 302 286 279 273 266 264 260 259 258 263 264 261 263 262 257
38 93 57 128 117 214 273 335 106 75 55 98 71 95 86 353 20 343 29 30 31 30 16 21 17 17 17 18 15 10 4 356 348 337 328 308 290 283 274 267 263 259 259 259 260 263 256 247 252
105 77 168 151 158 186 194 258 83 82 41 24 163 85 115 19 325 23 33 31 26 24 25 11 9 13 16 18 14 9 3 358 352 345 336 328 308 289 270 268 261 259 261 255 254 249 253 250 245
100 87 56 65 172 184 335 71 105 72 77 25 59 154 144 238 337 41 37 31 24 20 21 17 7 10 5 13 10 8 3 355 350 344 335 326 320 307 283 274 264 267 263 260 253 247 246 249 249
103 60 30 333 142 161 342 108 34 359 84 50 23 88 125 114 52 50 33 27 18 14 11 8 13 11 3 10 5 0 358 354 349 348 345 340 331 318 303 278 253 259 260 261 259 248 240 245 245
82 101 209 346 137 155 307 133 146 92 69 64 85 74 85 68 63 63 46 24 14 6 352 5 9 4 1 7 360 351 351 345 342 345 345 343 334 327 308 294 275 266 254 257 258 250 243 237 231
140 165 192 106 145 175 157 81 71 129 189 194 161 145 121 89 73 84 68 48 13 340 351 342 346 346 355 354 350 346 344 339 334 340 347 344 335 330 333 323 303 281 272 268 260 251 241 236 224
352 301 206 177 201 152 162 132 64 8 144 134 149 153 137 104 94 89 74 49 18 5 350 345 346 342 341 338 348 342 347 344 338 338 334 338 339 343 330 330 333 312 274 267 257 247 236 226 224
159 316 333 96 176 133 112 163 146 121 133 128 137 129 124 122 119 116 112 84 34 11 343 337 334 328 330 354 350 350 341 326 314 330 329 329 335 331 325 326 325 314 325 281 257 248 239 228 221
312 294 287 290 207 168 123 172 78 219 170 142 137 143 144 135 146 126 91 75 31 345 344 320 330 329 345 359 354 348 338 334 327 314 316 326 324 318 311 321 321 314 329 331 310 247 240 234 218
321 327 323 245 195 208 111 330 229 161 169 165 166 164 155 149 124 114 107 88 36 345 327 320 347 353 359 354 355 346 339 329 318 306 302 302 313 315 302 310 308 311 317 318 314 309 236 237 228
6 56 351 280 164 200 128 257 238 174 165 178 172 169 163 171 156 139 123 98 44 23 347 320 346 355 6 4 3 351 341 333 326 320 321 313 318 311 294 297 296 286 305 309 314 300 294 232 230
4 244 233 310 207 135 183 263 223 182 181 183 191 184 173 162 167 142 113 88 49 21 347 330 341 6 10 5 356 346 335 327 321 319 323 322 320 312 291 290 283 283 282 295 306 313 286 281 231
252 285 275 241 266 197 249 261 190 198 194 196 193 192 180 173 182 163 143 102 53 15 6 345 348 14 13 360 347 339 335 333 325 323 318 315 314 313 303 293 280 284 269 280 291 299 305 281 293
207 235 230 253 255 222 232 246 205 199 204 204 202 195 185 190 190 165 140 92 35 21 13 348 10 2 1 355 352 342 335 333 323 322 321 326 313 319 320 312 298 285 264 259 270 291 292 282 269
232 261 264 285 240 209 269 248 227 191 211 205 191 192 187 191 181 176 143 71 37 357 5 5 356 330 346 360 344 336 330 321 315 321 319 316 312 315 311 309 303 287 275 266 253 277 290 287 271
230 212 251 240 338 290 284 246 242 219 224 191 192 193 183 182 184 179 157 85 20 7 355 354 335 329 336 355 340 335 321 323 322 319 312 311 311 309 311 300 291 290 282 261 252 250 272 286 290
276 226 256 282 358 259 349 293 260 192 224 204 189 196 185 188 182 160 152 89 1 334 323 336 324 312 337 342 336 331 330 319 313 309 309 311 311 304 296 297 288 301 297 259 246 236 240 275 280
236 182 262 264 258 349 230 259 243 141 245 211 197 191 189 192 174 167 166 192 275 306 294 313 301 292 303 317 336 336 308 301 303 306 305 303 304 296 299 294 311 304 303 287 249 229 232 210 262
35 334 299 47 98 260 233 195 226 192 217 194 201 186 187 183 177 169 176 213 263 278 289 290 269 278 298 342 323 297 292 302 307 305 301 308 306 297 302 298 298 301 299 302 268 237 217 251 266
81 56 314 335 347 235 180 233 256 234 225 196 195 180 182 178 169 185 205 233 255 270 274 280 296 288 336 331 309 296 294 300 294 299 301 307 301 300 300 295 288 298 295 293 298 256 216 221 260
177 175 166 260 248 293 352 246 253 290 306 231 171 163 169 174 177 192 211 232 249 255 271 286 301 329 325 317 306 304 290 285 287 295 297 291 289 297 292 285 295 299 288 298 294 275 226 211 232
179 189 153 184 126 10 237 277 276 80 45 101 146 160 182 185 189 203 218 228 249 247 268 324 335 323 317 311 309 298 289 293 289 295 294 289 288 289 292 295 284 284 288 302 288 298 254 222 214
164 155 68 4 285 273 263 272 247 199 207 187 183 193 196 194 198 209 223 243 237 299 324 321 294 296 304 305 298 299 298 294 292 298 295 291 287 288 291 294 296 293 290 292 295 288 271 232 247
161 215 199 197 162 227 298 279 207 192 202 192 201 195 189 192 194 210 226 253 246 281 275 271 287 303 307 309 308 305 299 298 297 295 294 290 289 287 287 289 287 288 291 294 292 287 293 247 245
244 207 184 185 222 236 217 259 167 206 195 194 201 191 187 183 190 208 217 210 248 261 279 290 303 307 314 312 308 306 304 306 302 297 293 293 293 288 288 289 286 288 282 281 278 285 288 257 234